sat.trackr.live / text

‹ back to catalog

STARLINK-11720 [DTC]

NORAD 64131 · 2025-111J

PAYLOAD ACTIVE UNKNOWN

§ Identity

Operator
Country
US
Launch date
2025-05-24
Launch site
AFETR
Launch vehicle
Mass (kg)
RCS (m²)

Purposes: comms

External: N2YO · Heavens-Above · Gunter

§ Orbital elements

Epoch: 2026-05-24T22:34:10.700832Z

Period
91.67 min
Inclination
42.9995°
Eccentricity
0.0001153
Mean motion
15.70870531 rev/d
Perigee alt
355.6 km
Apogee alt
357.2 km
Semi-major
6,734.5 km
B*
1.4504e-3
RAAN
234.0287°
Arg perigee
14.7900°
Mean anomaly
345.3001°
Rev number
5,858

§ Raw data

STARLINK-11720 [DTC]1 64131U 25111J   26144.94040163  .00190225  00000+0  14504-2 0  99932 64131  42.9995 234.0287 0001153  14.7900 345.3001 15.70870531 58581

JSON: /api/v1/satellites/64131 · /tle

For live sub-satellite position, see the globe view (requires WebGL).

§ Visibility from observer

Set your observer location to see the next 7 days of passes ≥ 10°. The values pass through the URL so the page stays shareable.

No JS? Fill the form by hand. The geolocation button needs JavaScript.